カーディナル彗星

C/2010 B1 ( Cardinal )

English version
Home page
Updated on September 14, 2013

---------------------------------------------------------------------

・ プロフィール

発見日 2010年1月19日
発見光度 17.7等
発見者 R. D. Cardinal (Rothney Astrophysical Observatory, University of Calgary)

・ 写真集

・ 軌道要素

Epoch 2011 Feb. 8.0 TT = JDT 2455600.5
T 2011 Feb. 7.08094 TT                                  MPC
q   2.9414439            (2000.0)            P               Q
z  +0.0003401      Peri.  211.52584     +0.00060764     +0.24113756
 +/-0.0000003      Node   277.21360     +0.99183955     -0.12387414
e   0.9989995      Incl.  101.97629     -0.12749092     -0.96255279
From 1962 observations 2010 Jan. 19-2012 Oct. 3, mean residual 0".5.

・ 星図

・ 光度変化

        m1 = 8.0 + 5 logΔ + 10.0 log r(t + 60)

---------------------------------------------------------------------

軌道要素はM.P.E.C. 2012-T08に掲載されたものです。
星図はステラナビゲータ Ver.8 (アストロアーツ) で作成したものです。
光度グラフはComet for Windowsで作成したものです。

---------------------------------------------------------------------

Copyright(C) Seiichi Yoshida (comet@aerith.net). All rights reserved.